• In Deutschland
  • Länderverzeichnis
  • Für 7 Tage
  • Wassertemperatur
  • Satellitenkarten
  • Wetterkarte
  • Widgets
  • user-avatar
    Anmelden

    Stündliche Wetter Goldene Küste

    Heute, 25 April, Dienstag

    Zeit Temperatur Niederschläge Wind Luftdruck Luftfeuchtigkeit
    00:00 +16°C° 0 mm 2 m/S 760 mmHg 93%
    01:00 +15°C° 0 mm 2 m/S 760 mmHg 93%
    02:00 +15°C° 0 mm 2 m/S 760 mmHg 93%
    03:00 +15°C° 0 mm 2 m/S 760 mmHg 93%
    04:00 +15°C° 0 mm 2 m/S 760 mmHg 94%
    05:00 +16°C° 0 mm 2 m/S 760 mmHg 93%
    06:00 +18°C° 0 mm 1 m/S 760 mmHg 92%
    07:00 +18°C° 0 mm 1 m/S 760 mmHg 92%
    08:00 +20°C° 0 mm 1 m/S 760 mmHg 84%
    09:00 +23°C° 0 mm 1 m/S 760 mmHg 76%
    10:00 +25°C° 0 mm 1 m/S 760 mmHg 67%
    11:00 +25°C° 0 mm 1 m/S 759 mmHg 64%
    12:00 +26°C° 0 mm 2 m/S 759 mmHg 61%
    13:00 +27°C° 0 mm 2 m/S 758 mmHg 59%
    14:00 +26°C° 0 mm 2 m/S 758 mmHg 62%
    15:00 +26°C° 0 mm 3 m/S 757 mmHg 66%
    16:00 +25°C° 0 mm 3 m/S 757 mmHg 71%
    17:00 +22°C° 0 mm 3 m/S 757 mmHg 76%
    18:00 +21°C° 0 mm 3 m/S 757 mmHg 82%
    19:00 +19°C° 0 mm 3 m/S 758 mmHg 87%
    20:00 +19°C° 0 mm 3 m/S 758 mmHg 88%
    21:00 +19°C° 0 mm 4 m/S 757 mmHg 89%
    22:00 +18°C° 0 mm 4 m/S 757 mmHg 90%
    23:00 +18°C° 0 mm 4 m/S 757 mmHg 91%

    Morgen, 26 April, Mittwoch

    Zeit Temperatur Niederschläge Wind Luftdruck Luftfeuchtigkeit
    00:00 +18°C° 0 mm 4 m/S 757 mmHg 91%
    01:00 +17°C° 0 mm 4 m/S 756 mmHg 92%
    02:00 +17°C° 0 mm 4 m/S 756 mmHg 92%
    03:00 +17°C° 0 mm 4 m/S 756 mmHg 92%
    04:00 +16°C° 0 mm 5 m/S 756 mmHg 92%
    05:00 +17°C° 0 mm 5 m/S 756 mmHg 92%
    06:00 +17°C° 0 mm 5 m/S 756 mmHg 91%
    07:00 +17°C° 0 mm 5 m/S 756 mmHg 90%
    08:00 +20°C° 0 mm 5 m/S 756 mmHg 84%
    09:00 +22°C° 0 mm 5 m/S 756 mmHg 78%
    10:00 +25°C° 0 mm 5 m/S 756 mmHg 71%
    11:00 +26°C° 0,1 mm 5 m/S 755 mmHg 68%
    12:00 +27°C° 0,1 mm 5 m/S 754 mmHg 65%
    13:00 +28°C° 0,1 mm 5 m/S 753 mmHg 63%
    14:00 +27°C° 1 mm 5 m/S 753 mmHg 70%
    15:00 +26°C° 1 mm 6 m/S 753 mmHg 77%
    16:00 +23°C° 1 mm 6 m/S 752 mmHg 83%
    17:00 +22°C° 1,1 mm 6 m/S 753 mmHg 86%
    18:00 +21°C° 1,1 mm 6 m/S 753 mmHg 89%
    19:00 +20°C° 1,1 mm 6 m/S 754 mmHg 92%
    20:00 +19°C° 0 mm 6 m/S 754 mmHg 92%
    21:00 +19°C° 0 mm 6 m/S 754 mmHg 91%
    22:00 +17°C° 0 mm 6 m/S 755 mmHg 91%
    23:00 +16°C° 0 mm 6 m/S 755 mmHg 90%

    übermorgen, 27 April, Donnerstag

    Zeit Temperatur Niederschläge Wind Luftdruck Luftfeuchtigkeit
    00:00 +15°C° 0 mm 5 m/S 755 mmHg 90%
    01:00 +15°C° 0 mm 5 m/S 755 mmHg 90%
    02:00 +14°C° 0 mm 5 m/S 755 mmHg 89%
    03:00 +13°C° 0 mm 4 m/S 755 mmHg 88%
    04:00 +12°C° 0 mm 4 m/S 755 mmHg 88%
    05:00 +13°C° 0 mm 4 m/S 755 mmHg 87%
    06:00 +13°C° 0 mm 4 m/S 755 mmHg 86%
    07:00 +13°C° 0 mm 4 m/S 756 mmHg 85%
    08:00 +15°C° 0 mm 4 m/S 756 mmHg 76%
    09:00 +17°C° 0 mm 4 m/S 756 mmHg 67%
    10:00 +19°C° 0 mm 4 m/S 756 mmHg 58%
    11:00 +20°C° 0 mm 4 m/S 756 mmHg 54%
    12:00 +21°C° 0 mm 4 m/S 755 mmHg 50%
    13:00 +21°C° 0 mm 4 m/S 755 mmHg 46%
    14:00 +21°C° 0 mm 4 m/S 755 mmHg 49%
    15:00 +21°C° 0 mm 3 m/S 755 mmHg 52%
    16:00 +20°C° 0 mm 3 m/S 755 mmHg 56%
    17:00 +18°C° 0 mm 4 m/S 755 mmHg 60%
    18:00 +17°C° 0 mm 4 m/S 756 mmHg 65%
    19:00 +14°C° 0 mm 5 m/S 757 mmHg 69%
    20:00 +13°C° 0 mm 5 m/S 757 mmHg 70%
    21:00 +13°C° 0 mm 5 m/S 758 mmHg 72%
    22:00 +12°C° 0 mm 5 m/S 758 mmHg 73%
    23:00 +12°C° 0 mm 5 m/S 758 mmHg 75%

    28 April, Freitag

    Zeit Temperatur Niederschläge Wind Luftdruck Luftfeuchtigkeit
    00:00 +11°C° 0 mm 6 m/S 758 mmHg 77%
    01:00 +10°C° 0 mm 6 m/S 758 mmHg 79%
    02:00 +10°C° 0 mm 6 m/S 758 mmHg 78%
    03:00 +10°C° 0 mm 5 m/S 757 mmHg 78%
    04:00 +9°C° 0 mm 5 m/S 757 mmHg 78%
    05:00 +10°C° 0 mm 5 m/S 758 mmHg 75%
    06:00 +10°C° 0 mm 5 m/S 758 mmHg 72%
    07:00 +10°C° 0 mm 5 m/S 758 mmHg 69%
    08:00 +14°C° 0 mm 6 m/S 759 mmHg 65%
    09:00 +16°C° 0 mm 6 m/S 759 mmHg 61%
    10:00 +20°C° 0 mm 7 m/S 759 mmHg 57%
    11:00 +21°C° 0 mm 7 m/S 758 mmHg 57%
    12:00 +22°C° 0 mm 8 m/S 758 mmHg 57%
    13:00 +23°C° 0 mm 8 m/S 757 mmHg 57%
    14:00 +22°C° 0 mm 8 m/S 757 mmHg 60%
    15:00 +22°C° 0 mm 8 m/S 757 mmHg 63%
    16:00 +22°C° 0 mm 8 m/S 757 mmHg 66%
    17:00 +20°C° 0 mm 8 m/S 758 mmHg 70%
    18:00 +18°C° 0 mm 8 m/S 758 mmHg 75%
    19:00 +16°C° 0 mm 8 m/S 758 mmHg 80%
    20:00 +16°C° 0 mm 8 m/S 759 mmHg 81%
    21:00 +15°C° 0 mm 8 m/S 759 mmHg 81%
    22:00 +15°C° 0 mm 8 m/S 759 mmHg 82%
    23:00 +14°C° 0 mm 7 m/S 759 mmHg 82%

    29 April, Samstag

    Zeit Temperatur Niederschläge Wind Luftdruck Luftfeuchtigkeit
    00:00 +14°C° 0 mm 7 m/S 759 mmHg 81%
    01:00 +12°C° 0 mm 7 m/S 759 mmHg 81%
    02:00 +12°C° 0 mm 7 m/S 758 mmHg 78%
    03:00 +11°C° 0 mm 7 m/S 758 mmHg 76%
    04:00 +11°C° 0 mm 6 m/S 758 mmHg 74%
    05:00 +11°C° 0 mm 6 m/S 759 mmHg 74%
    06:00 +11°C° 0 mm 6 m/S 759 mmHg 75%
    07:00 +13°C° 0 mm 6 m/S 759 mmHg 75%
    08:00 +15°C° 0 mm 6 m/S 759 mmHg 71%
    09:00 +19°C° 0 mm 5 m/S 760 mmHg 67%
    10:00 +21°C° 0 mm 5 m/S 760 mmHg 62%
    11:00 +22°C° 0 mm 5 m/S 759 mmHg 59%
    12:00 +23°C° 0 mm 5 m/S 759 mmHg 56%
    13:00 +25°C° 0 mm 4 m/S 758 mmHg 53%
    14:00 +25°C° 0 mm 4 m/S 758 mmHg 56%
    15:00 +23°C° 0 mm 4 m/S 757 mmHg 59%
    16:00 +23°C° 0 mm 4 m/S 757 mmHg 63%
    17:00 +21°C° 0 mm 4 m/S 758 mmHg 72%
    18:00 +18°C° 0 mm 4 m/S 758 mmHg 80%
    19:00 +16°C° 0 mm 3 m/S 759 mmHg 89%
    20:00 +14°C° 0 mm 3 m/S 759 mmHg 90%
    21:00 +14°C° 0 mm 3 m/S 759 mmHg 91%
    22:00 +14°C° 0 mm 2 m/S 759 mmHg 92%
    23:00 +13°C° 0 mm 3 m/S 759 mmHg 90%

    30 April, Sonntag

    Zeit Temperatur Niederschläge Wind Luftdruck Luftfeuchtigkeit
    00:00 +13°C° 0 mm 3 m/S 758 mmHg 89%
    01:00 +13°C° 0 mm 3 m/S 758 mmHg 88%
    02:00 +13°C° 0 mm 3 m/S 758 mmHg 86%
    03:00 +13°C° 0 mm 4 m/S 758 mmHg 85%
    04:00 +13°C° 0 mm 4 m/S 758 mmHg 84%
    05:00 +13°C° 0 mm 5 m/S 759 mmHg 85%
    06:00 +14°C° 0 mm 5 m/S 759 mmHg 86%
    07:00 +14°C° 0 mm 6 m/S 760 mmHg 87%
    08:00 +16°C° 0 mm 6 m/S 760 mmHg 81%
    09:00 +19°C° 0 mm 6 m/S 760 mmHg 74%
    10:00 +21°C° 0 mm 7 m/S 760 mmHg 67%
    11:00 +22°C° 0 mm 7 m/S 759 mmHg 65%
    12:00 +23°C° 0 mm 7 m/S 758 mmHg 63%
    13:00 +23°C° 0 mm 7 m/S 758 mmHg 61%
    14:00 +23°C° 0 mm 7 m/S 758 mmHg 65%
    15:00 +22°C° 0 mm 7 m/S 758 mmHg 68%
    16:00 +22°C° 0 mm 8 m/S 758 mmHg 71%
    17:00 +20°C° 0 mm 7 m/S 759 mmHg 75%
    18:00 +18°C° 0 mm 7 m/S 759 mmHg 80%
    19:00 +16°C° 0 mm 7 m/S 760 mmHg 85%
    20:00 +16°C° 0 mm 7 m/S 760 mmHg 86%
    21:00 +16°C° 0 mm 7 m/S 760 mmHg 87%
    22:00 +15°C° 0 mm 7 m/S 760 mmHg 87%
    23:00 +15°C° 0 mm 6 m/S 760 mmHg 88%
    Mehr zeigen